Air Resources Laboratory banner image
Air Resources Laboratory web site National Oceanic and Atmospheric Administration (NOAA)

md roundup


Office: LWX

ASUS41 KLWX 180210
RWRLWX

REGIONAL WEATHER ROUNDUP
NATIONAL WEATHER SERVICE BALTIMORE MD/WASHINGTON DC
1000 PM EDT TUE JUL 17 2018

Note: "FAIR" indicates few or no clouds below 12,000 feet
with no significant weather and/or obstructions to visibility.
 TC=TEMPERATURE CELSIUS

 * =Non NWS site. Station does not report precipitation (e.g. rain,
    snow, etc.), thunder, or fog.

DCZ001-MDZ009-015-VAZ040>042-051-053>054-180300-
WASHINGTON METRO

CITY           SKY/WX    TMP DP  RH WIND       PRES   REMARKS
WASHINGTON NAT MOCLDY    82  73  74 NW21G32   29.88R
DULLES         TSTM      72  70  93 N12G21    29.89R
ANDREWS AFB    FAIR      78  75  91 NW5       29.86R
FT BELVOIR     FAIR      76  75  96 CALM      29.86R
QUANTICO       FAIR      79  77  94 NW8       29.86R
COLLEGE PARK*  MOCLDY    77  70  78 NW10G21   29.88R
LEESBURG*      MOCLDY    70  70 100 N7        29.91R
MANASSAS*      FAIR      78  70  76 N13       29.89R
GAITHERSBURG*  LGT RAIN  69  67  93 CALM      29.90F

$$

MDZ006>007-011-014-180300-
BALTIMORE METRO

CITY           SKY/WX    TMP DP  RH WIND       PRES   REMARKS
BWI AIRPORT    MOCLDY    77  74  90 N3        29.86R
MD SCIENCE CTR   N/A     81  74  79 MISG      29.86R
MARTIN STATE   MOCLDY    77  77 100 CALM      29.87R
ANNAPOLIS      FAIR      79  75  87 CALM      29.86R
FORT MEADE*    FAIR     N/A N/A N/A CALM      29.89R

$$

MDZ012-015-019>023-180300-
MARYLAND EASTERN SHORE

CITY           SKY/WX    TMP DP  RH WIND       PRES   REMARKS
OCEAN CITY     CLOUDY    74  73  97 E3        29.83R
SALISBURY      CLOUDY    75  75 100 SE5       29.82S
BAY BRIDGE AP* CLOUDY    75  75 100 CALM      29.85R
CAMBRIDGE*     MOCLDY    75  75 100 N6        29.84R
EASTON*        MOCLDY    75  73  94 NE6       29.88R

$$

MDZ017>025-180300-
SOUTHERN MARYLAND

CITY           SKY/WX    TMP DP  RH WIND       PRES   REMARKS
PATUXENT RIVER CLOUDY    77  76  96 W9        29.83R
ST INIGOES     NOT AVBL
LEONARDTOWN*     N/A     73  72  94 W3        29.86R

$$

MDZ003>005-180300-
NORTH CENTRAL MARYLAND

CITY           SKY/WX    TMP DP  RH WIND       PRES   REMARKS
FREDERICK*     FAIR      70  70 100 CALM      29.92S
HAGERSTOWN APT FAIR      71  68  90 CALM      29.92R
WESTMINSTER*   LGT RAIN  72  72 100 CALM      29.91S

$$

MDZ501>502-180300-
WESTERN MARYLAND

CITY           SKY/WX    TMP DP  RH WIND       PRES   REMARKS
OAKLAND*       MOCLDY    63  55  77 N5        30.06R
CUMBERLAND*    FAIR      77  59  53 NW6       29.99R

$$

VAZ025>031-180300-
SHENANDOAH VALLEY

CITY           SKY/WX    TMP DP  RH WIND       PRES   REMARKS
WINCHESTER*    FAIR      72  68  88 E3        29.95R
FRONT ROYAL*   CLOUDY    72  66  83 CALM      29.92R
LURAY*         FAIR      72  70  94 CALM      29.92R
NEW MARKET*    FAIR      71  69  96 CALM      29.91R
STAUNTON*      MOCLDY    72  68  87 CALM      29.95R
WAYNESBORO*    FAIR      73  73  99 S5        29.95R

$$

WVZ021-048>050-054>055-180300-
EASTERN WEST VIRGINIA PANHANDLE

CITY           SKY/WX    TMP DP  RH WIND       PRES   REMARKS
MARTINSBURG    FAIR      70  69  97 SW3       29.91R FOG
PETERSBURG*    FAIR      70  66  88 CALM      29.95

$$

VAZ036>039-050-180300-
CENTRAL FOOTHILLS

CITY           SKY/WX    TMP DP  RH WIND       PRES   REMARKS
CHARLOTTESVILL FAIR      74  70  87 CALM      29.89S
CULPEPER*      FAIR      77  73  88 W3        29.88R
ORANGE*        FAIR      72  70  94 CALM      29.88R
GORDONSVILLE*  FAIR      72  72 100 SW5       29.88R
WARRENTON*     MOCLDY    76  72  87 N3        29.88R

$$

VAZ055>057-180300-
NORTH AND CENTRAL PIEDMONT

CITY           SKY/WX    TMP DP  RH WIND       PRES   REMARKS
FREDERICKSBRG* FAIR      78  74  86 SW3       29.85R
STAFFORD*      FAIR      75  75 100 CALM      29.90R FOG

$$

NCZ024-NYZ072-PAZ021-071-VAZ022-071-180300-
OTHER REGIONAL OBSERVATIONS

CITY           SKY/WX    TMP DP  RH WIND       PRES   REMARKS
NEW YORK CITY  CLOUDY    72  71  97 NW5       29.87R
PHILADELPHIA   MOCLDY    75  72  90 E3        29.84R
PITTSBURGH     MOCLDY    72  56  57 N10       30.01R
ROANOKE        MOCLDY    81  65  58 NW5       29.95R
RICHMOND       FAIR      74  71  91 W6        29.85F
RALEIGH        CLOUDY    75  74  96 S6        29.91R THUNDER

$$

ANZ530>537-180300-
MARINE OBSERVATIONS

STATION/POSITION TIME  TEMP    WIND        PRES
                       AIR SEA DIR/SP/G
                 (UTC) (F)     (DEG/KT/KT) (MB)
THOMAS PT LIGHT  0200   77 80  350/  9/ 10 1011.9R
BALT KEY BRIDGE  0136   77      30/  3/  4 1010.9R
COVE POINT       0136   76     330/  5/  8 1010.7R
LEWISETTA        0136   78 82  260/  8/  9 1010.3R
SOLOMONS ISLAND  0136   78 81  290/  5/  8 1010.0R

$$





Office: PHI ASUS41 KPHI 180213 RWRPHI REGIONAL WEATHER ROUNDUP NATIONAL WEATHER SERVICE MOUNT HOLLY NJ 1000 PM EDT TUE JUL 17 2018 NOTE: "FAIR" INDICATES FEW OR NO CLOUDS BELOW 12,000 FEET WITH NO SIGNIFICANT WEATHER AND/OR OBSTRUCTIONS TO VISIBILITY. * = STATION DOES NOT REPORT PRECIPITATION (E.G. RAIN, SNOW, ETC.) OR FOG. NJZ015>026-180300- SOUTHERN NEW JERSEY CITY SKY/WX TMP DP RH WIND PRES REMARKS POMONA LGT RAIN 74 74 100 SE5 29.82S WILDWOOD* CLOUDY 75 73 93 SE3 29.84R MILLVILLE MOCLDY N/A N/A N/A NW3 29.83R WRIGHTSTOWN CLOUDY 72 71 98 CALM 29.82R MOUNT HOLLY CLOUDY 73 73 100 CALM 29.83R TRENTON FAIR 73 71 93 CALM 29.84R $$ NJZ001>014-180300- NORTHERN NEW JERSEY CITY SKY/WX TMP DP RH WIND PRES REMARKS SUSSEX LGT RAIN 68 68 100 CALM 29.86S FOG ANDOVER* N/A 67 67 100 CALM 29.88R MORRISTOWN CLOUDY 73 72 94 CALM 29.84R FOG NEWARK CLOUDY 73 70 90 W8 29.84R TETERBORO CLOUDY 73 71 93 S5 29.83R CALDWELL CLOUDY 73 73 100 CALM 29.85R ALLAIRE* CLOUDY 71 70 96 W6 29.84R FOG TOMS RIVER* CLOUDY 72 72 100 CALM 29.84R $$ PAZ043-044-047-054-055-060>062-066>071-180300- EASTERN PENNSYLVANIA CITY SKY/WX TMP DP RH WIND PRES REMARKS PHILADELPHIA MOCLDY 75 72 90 E3 29.84R NORTH PHILA FAIR 75 71 87 CALM 29.85R BLUE BELL* FAIR 70 70 100 CALM 29.87R DOYLESTOWN MOCLDY 72 72 100 CALM 29.86R QUAKERTOWN* MOCLDY 72 72 100 CALM 29.87R PERKASIE* LGT RAIN 72 72 100 N5 29.88R POTTSTOWN MOCLDY 73 72 96 CALM 29.87R LANCASTER FAIR 76 72 87 W5 29.88R COATESVILLE FAIR 73 72 94 CALM 29.89R READING CLOUDY 75 73 93 CALM 29.86R ALLENTOWN LGT RAIN 72 68 87 CALM 29.86S MOUNT POCONO MOCLDY 67 66 97 CALM 29.92R HAZLETON FAIR 63 61 94 CALM 29.95S FOG LEHIGHTON FAIR 68 68 100 CALM 29.88S FOG WILKES BARRE FAIR 68 68 100 SW3 29.90R FOG $$ DEZALL-MDZ008-012-015-019-020-180300- DELAWARE AND EASTERN MARYLAND CITY SKY/WX TMP DP RH WIND PRES REMARKS WILMINGTON FAIR 74 71 91 CALM 29.85R DOVER PTCLDY 74 72 95 CALM 29.83R GEORGETOWN MOCLDY 74 72 93 N3 29.85R EASTON MOCLDY 75 73 94 NE6 29.88R PATUXENT CLOUDY 77 76 96 W9 29.83 OCEAN CITY CLOUDY 74 73 97 E3 29.83R WALLOPS ISLAND FAIR 80 78 94 N5 29.81F CAMBRIDGE MOCLDY 75 75 100 N6 29.84R SALISBURY CLOUDY 75 75 100 SE5 29.82S $$ PAZ001-021-NYZ056-072-MDZ011-DCZ001-180300- OTHER NEARBY LOCATIONS CITY SKY/WX TMP DP RH WIND PRES REMARKS HARRISBURG MOCLDY 77 73 87 CALM 29.87R STATE COLLEGE CLEAR 70 57 64 NW5 29.96R WILLIAMSPORT FAIR 72 68 87 W6 29.90R BINGHAMTON FAIR 66 52 60 NW7 29.94R NEW YORK CITY CLOUDY 72 71 97 NW5 29.87R BALTIMORE MOCLDY 77 74 90 N3 29.86R WASHINGTON DC MOCLDY 82 73 74 NW21G32 29.88R $$
Office: AKQ ASUS41 KAKQ 180215 RWRAKQ REGIONAL WEATHER ROUNDUP NATIONAL WEATHER SERVICE WAKEFIELD VA 1000 PM EDT TUE JUL 17 2018 Note: "fair" indicates few or no clouds below 12,000 feet with no significant weather and/or obstructions to visibility. * = Denotes station may not report precipitation (e.g., rain,snow,etc.), thunder or fog. VAZ042-051-052>054-056-180300- NORTHERN VIRGINIA CITY SKY/WX TMP DP RH WIND PRES REMARKS WASH NATIONAL MOCLDY 82 73 74 NW21G32 29.88R DULLES TSTM 72 70 93 N12G21 29.89R FORT BELVOIR FAIR 76 75 96 CALM 29.86R QUANTICO FAIR 79 77 94 NW8 29.86R FREDERICKSBRG* FAIR 78 74 86 SW3 29.85R STAFFORD* FAIR 75 75 100 CALM 29.90R FOG WARRENTON MOCLDY 76 72 87 N3 29.88R CULPEPER* FAIR 77 73 88 W3 29.88R MANASSAS* FAIR 78 70 76 N13 29.89R LEESBURG* MOCLDY 70 70 100 N7 29.91R WINCHESTER FAIR 72 68 88 E3 29.95R FRONT ROYAL* CLOUDY 72 66 83 CALM 29.92R LURAY* FAIR 72 70 94 CALM 29.92R $$ VAZ048-049-060>072-079>083-180300- CENTRAL AND SOUTH CENTRAL VIRGINIA CITY SKY/WX TMP DP RH WIND PRES REMARKS RICHMOND FAIR 74 71 91 W6 29.85F CHESTERFIELD* FAIR 72 71 97 CALM 29.86F PETERSBURG* LGT RAIN 72 69 93 CALM 29.87F HANOVER FAIR 73 73 100 S3 29.86F TAPPAHANNOCK* FAIR 75 75 100 SW3 29.85F QUINTON* FAIR 73 73 100 CALM 29.84F CHARLOTTSVILLE FAIR 74 70 87 CALM 29.89S GORDONSVILLE* FAIR 72 72 100 SW5 29.88R ORANGE* FAIR 72 70 94 CALM 29.88R LOUISA* FAIR 71 68 93 W5 29.92S BUMPASS* FAIR 73 72 95 SW5 29.87R FARMVILLE* MOCLDY 72 72 99 CALM 29.88F CREWE* FAIR 72 72 100 CALM 29.88F FORT PICKETT* MOCLDY 72 72 100 SW5 29.88F CHASE CITY* FAIR N/A N/A N/A CALM 29.90S CLARKSVILLE* FAIR 77 77 100 CALM 29.89S SOUTH HILL* CLOUDY 75 73 95 CALM 29.94F LAWRENCEVILLE* CLOUDY 74 72 92 CALM 29.88S EMPORIA* CLOUDY 72 72 100 SE7 29.91R $$ VAZ088>098-180300- SOUTHEAST VIRGINIA CITY SKY/WX TMP DP RH WIND PRES REMARKS NORFOLK FAIR 82 76 81 SW13 29.84S VIRGINIA BEACH CLOUDY 80 71 74 S12 29.83F NORFOLK NAVAL CLOUDY 82 74 76 W7 29.87R THUNDER WEST POINT* FAIR 74 74 100 W6 29.84F SALUDA* FAIR 75 75 100 W5 29.83S NEWPORT NEWS LGT RAIN 79 72 79 W5 29.85R LANGLEY AFB FAIR 82 73 75 W7 29.84F FORT EUSTIS LGT RAIN 77 73 88 W6 29.83S WILLIAMSBURG* FAIR 77 75 94 CALM 29.85F HR EXEC AP* TSTM 73 73 100 W10G28 29.89R FOG FRANKLIN* RAIN 73 73 97 CALM 29.88F US460-WAKEFLD TSTM 74 71 91 CALM 29.85F $$ VAZ020-022-025-037-045-180300- WEST CENTRAL AND SOUTHWEST VIRGINIA CITY SKY/WX TMP DP RH WIND PRES REMARKS STAUNTON* MOCLDY 72 68 87 CALM 29.95R WAYNESBORO* FAIR 73 73 99 S5 29.95R HOT SPRINGS VA FAIR 70 66 88 NW9 30.09R LYNCHBURG MOCLDY 77 72 84 NE6 29.93R DANVILLE FAIR 75 75 100 SE3 29.90R SOUTH BOSTON* FAIR 75 74 95 CALM 29.89R MARTINSVILLE FAIR 74 72 95 CALM 29.95R ROANOKE MOCLDY 81 65 58 NW5 29.95R BLACKSBURG FAIR 74 66 75 W5 30.04R DUBLIN* FAIR 76 66 71 NW7 30.03S MARION* CLOUDY 69 67 94 W8 30.09R HILLSVILLE* CLOUDY 70 68 94 NW5 30.05R RICHLANDS* CLOUDY 67 66 97 CALM 30.09R WISE* FAIR 72 72 100 NW3 30.10R ABINGDON* CLOUDY 73 73 99 CALM 30.06R $$ MDZ021>025-VAZ099-100-180300- SOUTHERN MARYLAND AND THE DELMARVA PENINSULA CITY SKY/WX TMP DP RH WIND PRES REMARKS PATUXENT RIVER CLOUDY 77 76 96 W9 29.83R BAY BRIDGE APT CLOUDY 75 75 100 CALM 29.85R LEONARDTOWN N/A 73 72 94 W3 29.86R DOVER PTCLDY 74 72 95 CALM 29.83R GEORGETOWN MOCLDY 74 72 93 N3 29.85R EASTON MOCLDY 75 73 94 NE6 29.88R CAMBRIDGE MOCLDY 75 75 100 N6 29.84R SALISBURY CLOUDY 75 75 100 SE5 29.82S TANGIER CLOUDY 81 79 94 W13 29.81F OCEAN CITY CLOUDY 74 73 97 E3 29.83R WALLOPS ISLAND FAIR 80 78 94 N5 29.81F ACCOMACK* FAIR 80 73 79 W8 29.82S $$ NCZ012>017-030>032-180300- NORTH CENTRAL AND EASTERN NORTH CAROLINA CITY SKY/WX TMP DP RH WIND PRES REMARKS ROANOKE RAPIDS MOCLDY 73 72 94 CALM 29.90R RALEIGH CLOUDY 75 74 96 S6 29.91R THUNDER ELIZABETH CITY MOCLDY 83 78 85 SW12 29.87F AHOSKIE* MOCLDY 79 72 80 MISG 29.91R EDENTON* CLOUDY 83 78 85 SW14 29.89F CURRITUCK* FAIR 82 77 85 MISG 29.88R KILL DEVIL HLS N/A 80 75 84 SW8 29.88S MANTEO CLOUDY 80 76 86 SW17 29.89F CAPE HATTERAS CLOUDY 81 78 91 SW14 29.93S TARBORO* NOT AVBL GOLDSBORO TSTM 81 77 89 W6 29.90R WASHINGTON LGT RAIN 80 74 81 S6 29.90F GREENVILLE HVY RAIN 79 77 94 SW13G22 29.93S NEW BERN MOCLDY 80 76 87 SW8 29.92F WILMINGTON FAIR 78 68 71 W12 29.94R $$ VAZ048-180300- ELSEWHERE CITY SKY/WX TMP DP RH WIND PRES REMARKS HARRISBURG PA MOCLDY 77 73 87 CALM 29.87R BALTIMORE MOCLDY 77 74 90 N3 29.86R ANNAPOLIS FAIR 79 75 87 CALM 29.86R ANDREWS AFB FAIR 78 75 91 NW5 29.86R PHILADELPHIA MOCLDY 75 72 90 E3 29.84R HENDERSON NC FAIR 73 71 94 S7 29.91R GREENSBORO MOCLDY 79 74 84 SW5 29.92R ROCKY MOUNT MOCLDY 76 75 97 S3 29.90R $$ VAZ100-180300- MARINE STATION/POSITION TIME TEMP WIND PRES WAVE SWELL AIR SEA DIR/SP/G HT/PER HT/PER (UTC) (F) (DEG/KT/KT) (MB) (FT/S) (FT/S) BRANDYWINE LGT 0136 75 180/ 9/ 9 1010.5R CAPE MAY NJ 0136 74 76 160/ 3/ 4 1009.7R LEWES DE 0136 73 74 1010.2R 15NM E FENWICK I 0150 74 76 70/ 2/ 4 1010.1F 3/ 5 3/ 5 OCEAN-CITY-INLET 0136 74 80 40/ 3/ 4 1010.5R WACHAPREAGUE VA 0136 81 85 210/ 6/ 12 1009.7S THOMAS POINT MD 0200 77 80 350/ 9/ 10 1011.9R GOOSES REEF MD 0200 78 360/ 10/ 12 1010.7 1 COVE POINT MD 0136 76 330/ 5/ 8 1010.7R SOLOMONS ISLAND 0136 78 81 290/ 5/ 8 1010.0R BISHOPS HEAD MD 0136 80 88 260/ 7/ 9 1010.3R POTOMAC MD 0200 79 83 280/ 10/ 14 1010.2 1/ 2 CAMBRIDGE MD 0136 76 83 1011.3R LEWISETTA VA 0136 78 82 260/ 8/ 9 1010.3R RAPPAHANNOCK LGT 0148 270/ 18/ 22 1010.6R STINGRAY PT 0200 79 82 300/ 12/ 14 1010.2 1 YORK RVR RNG VA 0136 81 310/ 14/ 16 1010.7S YORKTOWN VA 0136 78 82 290/ 11/ 15 1009.9F DOMINION TERM VA 0136 82 310/ 13/ 18 1010.8S KIPTOPEKE VA 0148 82 280/ 10/ 13 N/A CAPE HENRY VA 0136 82 210/ 8/ 13 1008.7S WILLOUBY STN VA 0136 83 280/ 11/ 12 1009.9R S CRANEY ISL VA 0136 82 210/ 6/ 10 1010.8R CAPE HENRY BUOY 0200 79 N/A 3/ 6 1ST LANDING BUOY 0200 81 250/ 14/ 17 1010.1 1/ 4 64NM E OF VA BCH 0150 78 78 210/ 16/ 17 1011.4F 5/ 6 2/10 DUCK PIER NC 0136 82 73 210/ 12/ 17 1011.2F 44100 DUCK FRF 0145 76 N/A 3/ 6 44056 DUCK FRF 0200 74 N/A 2/11 OREGON INLET NC 0136 82 84 210/ 21/ 26 1012.4S HATTERAS NC 0136 81 82 220/ 12/ 17 1013.5R DIAMOND SHLS NC 0150 83 80 220/ 19/ 25 1014.1R 7/ 6 2/11 CAPE LOOKOUT NC 0200 220/ 13/ 17 1014.2F $$